User: anonymous   Login
Location: Doux
(49.5045°N, 4.4321°E)
Time: 06:52:48
(UTC+00:00)
Language:

Cosmos 2228 Rocket - Orbit

View from above orbital plane
View from above orbital plane
View from above satellite
View from above satellite

Ground track
Ground track

The orbit data is extracted from the following two-line orbital elements,

1 22287U 92094B   24202.91894049  .00000954  00000-0  12499-3 0  9995
2 22287  82.5238 188.3264 0025495 130.1608 230.1843 14.79131671680271
Epoch (UTC): 20 July 2024 22:03:16
Eccentricity: 0.0025495
inclination: 82.5238°
perigee height: 614 km
apogee height: 650 km
right ascension of ascending node: 188.3264°
argument of perigee: 130.1608°
revolutions per day: 14.79131671
mean anomaly at epoch: 230.1843°
orbit number at epoch: 68027

The dashed part of the orbit path shows where the satellite is in the earth's shadow,  

DLR